Findlay, OH

5:37 AM EST on December 14, 2019 (GMT -0500)
Findlay

Weather History for KFDY - October, 2019

Change the Weather History Date:

Saturday, October 5, 2019

  Actual Average Record
Temperature  
Mean Temperature 59 °F -  
Max Temperature 72 °F 67 °F 88 °F (1951)
Min Temperature 46 °F 45 °F 27 °F (1965)
Degree Days  
Heating Degree Days 6    
Growing Degree Days 9 (Base 50)    
Moisture  
Dew Point 46 °F    
Average Humidity 66    
Maximum Humidity 81    
Minimum Humidity 43    
Precipitation  
Precipitation 0.00 in - - ()
Sea Level Pressure  
Sea Level Pressure 30.15 in    
Wind  
Wind Speed 7 mph (ENE)    
Max Wind Speed 10 mph    
Max Gust Speed -    
Visibility 10 miles    
Events      
Averages and records for this station are not official NWS values.
T = Trace of Precipitation, MM = Missing Value Source: NWS Daily Summary

Daily Weather History Graph

Daily Weather History Graph

Search for Another Location

Airport or City:

Astronomy

Oct. 05, 2019 Rise Set
Actual Time 7:35 AM EDT 7:10 PM EDT
Civil Twilight 7:07 AM EDT 7:37 PM EDT
Nautical Twilight 6:35 AM EDT 8:09 PM EDT
Astronomical Twilight 6:03 AM EDT 8:41 PM EDT
Moon 3:02 PM EDT (10/5) No Moon Set
Length of Visible Light 12h 30m
Length of Day
11h 35m
Waxing Crescent, 50% of the Moon is Illuminated
Oct 5
Waxing Crescent
Oct 5
First Quarter
Oct 13
Full
Oct 21
Last Quarter
Oct 27
New

Hourly Weather History & Observations

Time (EDT) Temp. Dew Point Humidity Pressure Visibility Wind Dir Wind Speed Gust Speed Precip Events Conditions
12:53 AM 53.1 °F 44.1 °F 71% 30.32 in 10.0 mi NE 10.4 mph - N/A   Mostly Cloudy
1:53 AM 53.1 °F 45.0 °F 74% 30.30 in 10.0 mi NE 8.1 mph - N/A   Mostly Cloudy
2:53 AM 53.1 °F 46.0 °F 77% 30.28 in 10.0 mi NE 8.1 mph - N/A   Overcast
3:53 AM 52.0 °F 46.0 °F 80% 30.27 in 10.0 mi ENE 8.1 mph - N/A   Partly Cloudy
4:53 AM 51.1 °F 42.1 °F 71% 30.26 in 10.0 mi East 6.9 mph - N/A   Scattered Clouds
5:53 AM 48.9 °F 41.0 °F 74% 30.25 in 10.0 mi ENE 6.9 mph - N/A   Clear
6:53 AM 46.9 °F 41.0 °F 80% 30.25 in 10.0 mi East 4.6 mph - N/A   Partly Cloudy
7:05 AM 48.0 °F 42.1 °F 80% 30.25 in 10.0 mi East 4.6 mph - N/A   Mostly Cloudy
7:53 AM 50.0 °F 43.0 °F 77% 30.24 in 10.0 mi NE 5.8 mph - N/A   Overcast
8:53 AM 52.0 °F 43.0 °F 71% 30.23 in 10.0 mi ENE 9.2 mph - N/A   Clear
9:53 AM 54.0 °F 42.1 °F 64% 30.23 in 10.0 mi East 9.2 mph - N/A   Clear
10:53 AM 55.0 °F 44.1 °F 67% 30.21 in 10.0 mi ENE 6.9 mph - N/A   Clear
11:53 AM 57.9 °F 45.0 °F 62% 30.17 in 10.0 mi East 8.1 mph - N/A   Clear
12:53 PM 62.1 °F 46.9 °F 58% 30.14 in 10.0 mi ESE 9.2 mph - N/A   Clear
1:53 PM 66.0 °F 48.0 °F 52% 30.11 in 10.0 mi East 6.9 mph - N/A   Clear
2:53 PM 68.0 °F 48.0 °F 49% 30.08 in 10.0 mi SE 6.9 mph - N/A   Clear
3:53 PM 69.1 °F 48.0 °F 47% 30.05 in 10.0 mi East 4.6 mph - N/A   Clear
4:53 PM 70.0 °F 48.0 °F 46% 30.03 in 10.0 mi ESE 5.8 mph - N/A   Clear
5:53 PM 72.0 °F 48.0 °F 43% 30.01 in 10.0 mi SE 3.5 mph - N/A   Clear
6:53 PM 68.0 °F 48.0 °F 49% 30.00 in 10.0 mi SE 4.6 mph - N/A   Clear
7:53 PM 66.9 °F 48.9 °F 52% 29.99 in 10.0 mi NE 3.5 mph - N/A   Clear
8:53 PM 61.0 °F 52.0 °F 72% 29.99 in 10.0 mi NE 5.8 mph - N/A   Clear
9:53 PM 60.1 °F 52.0 °F 75% 29.99 in 10.0 mi East 3.5 mph - N/A   Mostly Cloudy
10:53 PM 61.0 °F 53.1 °F 75% 30.00 in 10.0 mi North 4.6 mph - N/A   Overcast
11:53 PM 59.0 °F 53.1 °F 81% 29.98 in 10.0 mi ENE 8.1 mph - N/A   Clear